[[{"header":{"parameterUnit":"m.s-1","parameterCategory":1,"la1":30.2991,"la2":30.254,"lo1":-89.0895,"lo2":-89.0444,"dy":0.0017,"dx":0.0017,"nx":28,"ny":28,"refTime":"2023-07-19T03:00:00:Z","depth":0,"parameterNumber":2,"parameterNumberName":"U-component_of_WINDS"},"data":[0,0,0,0,0,0,0,0,0,0,0,0,0,0,0,0,0,0,0,0,0,0,0,0,0,0,0,0,0,0,0,0,0,0,0,0,0,0,0,0,0,0,0,0,0,0,0,0,0,0,0,0,0,0,0,0,0,0,0.5749,0.5749,0,0.5809,0.581,0.581,0.5826,0.5826,0.5825,0.5825,0.5885,0.5887,0.5889,0,0,0,0,0,0,0,0,0,0,0,0,0,0.5645,0.5646,0.5749,0.5749,0.575,0.5809,0.581,0.581,0.5826,0.5826,0.5825,0.5825,0.5885,0.5887,0.5889,0,0,0,0,0,0,0,0,0,0,0,0,0,0.5696,0.5647,0.5748,0.5765,0.5767,0.5809,0.581,0.5811,0.5826,0.5826,0.5825,0.5825,0.5884,0.5887,0.589,0.5919,0,0,0.5899,0.59,0,0,0,0,0,0,0,0,0.5693,0.57,0.5762,0.5764,0.5766,0.5809,0.5795,0.5847,0.5826,0.5804,0.5825,0.5824,0.586,0.5865,0.5878,0.5921,0.5924,0.5899,0.5901,0.5902,0.5903,0,0,0,0,0,0,0,0.5689,0.5697,0.5772,0.5763,0.5766,0.5769,0.5775,0.5805,0.5834,0.5806,0.5807,0.5814,0.5862,0.5875,0.5879,0.5925,0.5899,0.5901,0.5903,0.5904,0.5994,0.5994,0,0,0,0,0,0,0.5683,0.5694,0.5771,0.5774,0.5728,0.5771,0.5778,0.5796,0.5834,0.5839,0.5814,0.5814,0.587,0.5876,0.5881,0.5917,0.5902,0.5905,0.5906,0.5993,0.5994,0.5995,0,0,0,0,0,0,0.5681,0.569,0.5768,0.5735,0.5745,0.5773,0.5793,0.5798,0.5811,0.5841,0.5846,0.5823,0.587,0.5877,0.5909,0.5919,0.5906,0.5909,0.5992,0.5993,0.5994,0.5988,0,0,0,0,0,0,0.5678,0.5689,0.5701,0.5735,0.5746,0.5795,0.5794,0.5799,0.5816,0.5817,0.585,0.5855,0.587,0.5905,0.5912,0.5923,0.5911,0.5992,0.5993,0.5994,0.5988,0.5989,0.599,0,0,0,0,0,0.5674,0.5697,0.5701,0.5711,0.5762,0.5796,0.5803,0.582,0.5817,0.5829,0.5847,0.5854,0.5917,0.5908,0.5916,0.5928,0.5991,0.5992,0.5994,0.5987,0.5989,0.599,0,0,0,0,0,0,0.5663,0.5702,0.5707,0.5742,0.5765,0.5799,0.5814,0.5821,0.5846,0.5846,0.5866,0.5873,0.5903,0.5919,0.5908,0.5957,0.5954,0.5957,0.5946,0.5948,0.5949,0.5944,0.5913,0,0,0,0,0,0.5665,0.569,0.5722,0.5749,0.5761,0.5785,0.5801,0.5812,0.5837,0.5847,0.5869,0.5892,0.5917,0.5933,0.5958,0.599,0.5997,0.6002,0.6004,0.6004,0.6007,0.6023,0.6026,0.5999,0.5999,0.5999,0,0,0.5668,0.5692,0.5707,0.5747,0.5767,0.5792,0.5794,0.582,0.5838,0.5851,0.5882,0.5898,0.5926,0.5958,0.5973,0.5972,0.6016,0.6006,0.6007,0.6009,0.6025,0.6028,0.603,0.6,0.6,0.6,0,0,0.5687,0.5709,0.5733,0.5753,0.5783,0.5799,0.5804,0.5836,0.5848,0.5879,0.5889,0.5911,0.5954,0.5973,0.5988,0.6013,0.6019,0.6021,0.6026,0.6042,0.6044,0.6046,0.6054,0.6057,0.6023,0.6023,0.6023,0,0.5688,0.5726,0.5745,0.577,0.5787,0.58,0.5825,0.5843,0.5879,0.589,0.5888,0.5942,0.5962,0.5997,0.6003,0.6015,0.6022,0.6017,0.6043,0.6045,0.6047,0.6055,0.6058,0.6023,0.6023,0.6023,0.6023,0,0.5724,0.5751,0.5767,0.5801,0.582,0.5845,0.5866,0.5883,0.5892,0.5908,0.5939,0.5963,0.5993,0.6002,0.6012,0.6039,0.6037,0.6039,0.6036,0.6049,0.6057,0.606,0.6023,0.6023,0.6023,0.6023,0,0,0.5739,0.5783,0.5788,0.5804,0.5837,0.5857,0.5882,0.5911,0.5924,0.5949,0.5969,0.6005,0.6006,0.6024,0.6035,0.605,0.6066,0.605,0.6051,0.6051,0.6096,0.6094,0.6097,0.6071,0.6071,0.6072,0.6094,0,0.5761,0.5806,0.5823,0.586,0.5884,0.5896,0.5917,0.594,0.5955,0.5976,0.5993,0.6017,0.6018,0.6029,0.6043,0.6061,0.6075,0.606,0.6089,0.609,0.6081,0.6101,0.61,0.6119,0.6097,0.6097,0.6098,0,0.5793,0.5818,0.5857,0.5887,0.5897,0.5916,0.5943,0.5964,0.5989,0.5999,0.6018,0.6028,0.6054,0.6049,0.6083,0.6072,0.6085,0.6096,0.6097,0.61,0.6094,0.6104,0.6126,0.6128,0.6103,0.6102,0.6102,0,0.5798,0.5841,0.587,0.5883,0.5918,0.5931,0.5946,0.5971,0.5987,0.601,0.6021,0.6047,0.6061,0.6081,0.6097,0.6093,0.613,0.6127,0.6138,0.6138,0.6145,0.6144,0.6168,0.6154,0.6154,0.6154,0.6154,0,0.5821,0.5844,0.5873,0.589,0.5916,0.5935,0.596,0.5976,0.5997,0.6017,0.603,0.6048,0.607,0.609,0.6104,0.613,0.6136,0.6144,0.6147,0.6143,0.6142,0.6151,0.615,0.6155,0.6155,0.6155,0.6155,0,0.5831,0.5851,0.5883,0.5914,0.5922,0.594,0.5966,0.5983,0.5998,0.6023,0.603,0.6054,0.6079,0.6098,0.6131,0.614,0.6167,0.6171,0.6159,0.616,0.617,0.6168,0.62,0.6205,0.6188,0.6188,0.6189,0,0.5844,0.5862,0.5895,0.591,0.5925,0.5948,0.5964,0.5983,0.5999,0.6029,0.6042,0.6068,0.609,0.6129,0.6149,0.6174,0.6178,0.6187,0.6181,0.6176,0.6177,0.6175,0.6177,0.6187,0.6188,0.6188,0.6188,0,0.5865,0.5874,0.5897,0.5923,0.5942,0.5964,0.5986,0.5997,0.6019,0.6037,0.6063,0.6079,0.6113,0.6138,0.6164,0.6179,0.6187,0.6189,0.6193,0.6188,0.618,0.6184,0.616,0.6188,0.6188,0.6188,0.6188,0.6188,0.5876,0.5892,0.5918,0.5943,0.5961,0.5981,0.5998,0.6015,0.6038,0.6066,0.6076,0.6102,0.6126,0.6162,0.6177,0.6198,0.6198,0.6203,0.6205,0.6206,0.6205,0.6177,0.6203,0.6203,0.6203,0.6203,0.6203,0,0.5897,0.5913,0.5936,0.5966,0.5986,0.5992,0.6016,0.6031,0.6055,0.6076,0.6097,0.6126,0.6151,0.6172,0.6197,0.621,0.6214,0.6215,0.6215,0.6218,0.6204,0.6198,0.6212,0.6212,0.6212,0.6212,0.6212,0.6212,0.591,0.5937,0.5949,0.5985,0.6001,0.6027,0.604,0.6058,0.6076,0.6108,0.6128,0.6142,0.6163,0.619,0.6212,0.6218,0.6226,0.6227,0.6233,0.622,0.6219,0.6218,0.6212,0.6229,0.6229,0.6245,0.6246,0.6246]},{"header":{"parameterUnit":"m.s-1","parameterCategory":1,"la1":30.2991,"la2":30.254,"lo1":-89.0895,"lo2":-89.0444,"dy":0.0017,"dx":0.0017,"nx":28,"ny":28,"refTime":"2023-07-19T03:00:00:Z","depth":0,"parameterNumber":3,"parameterNumberName":"V-component_of_WINDS"},"data":[0,0,0,0,0,0,0,0,0,0,0,0,0,0,0,0,0,0,0,0,0,0,0,0,0,0,0,0,0,0,0,0,0,0,0,0,0,0,0,0,0,0,0,0,0,0,0,0,0,0,0,0,0,0,0,0,0,0,5.4399,5.4399,0,5.4394,5.4394,5.4394,5.4292,5.4289,5.4287,5.4284,5.4279,5.4281,5.4283,0,0,0,0,0,0,0,0,0,0,0,0,0,5.4321,5.4323,5.4399,5.4399,5.4399,5.4394,5.4394,5.4393,5.4292,5.4289,5.4286,5.4283,5.4278,5.4281,5.4283,0,0,0,0,0,0,0,0,0,0,0,0,0,5.4339,5.4323,5.4399,5.4348,5.4343,5.4394,5.4394,5.4393,5.4293,5.4289,5.4285,5.4282,5.4277,5.428,5.4284,5.4383,0,0,5.4294,5.4296,0,0,0,0,0,0,0,0,5.4338,5.4342,5.4355,5.4352,5.4346,5.4339,5.4364,5.439,5.4294,5.4312,5.4284,5.428,5.4302,5.4303,5.4311,5.4383,5.4382,5.4295,5.4297,5.4298,5.4299,0,0,0,0,0,0,0,5.4337,5.4342,5.4397,5.4356,5.435,5.4325,5.4323,5.4368,5.4329,5.431,5.4303,5.4304,5.4299,5.4308,5.431,5.4382,5.4294,5.4297,5.43,5.4301,5.4533,5.4537,0,0,0,0,0,0,5.4343,5.4341,5.4397,5.4397,5.4333,5.4329,5.4327,5.4346,5.4328,5.4322,5.4307,5.4299,5.4304,5.4306,5.4309,5.4422,5.4298,5.4301,5.4303,5.4529,5.4534,5.4538,0,0,0,0,0,0,5.4342,5.4349,5.4397,5.4367,5.4371,5.4335,5.4356,5.4348,5.4356,5.4326,5.4318,5.4323,5.4301,5.4305,5.4365,5.4421,5.4303,5.4306,5.4524,5.453,5.4536,5.4651,0,0,0,0,0,0,5.434,5.4349,5.4387,5.4369,5.4373,5.4454,5.436,5.435,5.4362,5.4352,5.4339,5.4333,5.4298,5.436,5.4368,5.4423,5.4309,5.4519,5.4527,5.4534,5.4642,5.466,5.4676,0,0,0,0,0,5.4337,5.442,5.4389,5.4396,5.442,5.4457,5.4459,5.4417,5.4367,5.4404,5.4385,5.4334,5.4414,5.4367,5.4375,5.4432,5.4515,5.4525,5.4534,5.4634,5.4656,5.4675,0,0,0,0,0,0,5.4445,5.4416,5.4382,5.4461,5.4462,5.444,5.4485,5.4443,5.4458,5.4448,5.4395,5.4393,5.4461,5.4453,5.4402,5.4526,5.4455,5.4467,5.4529,5.455,5.4567,5.4567,5.4311,0,0,0,0,0,5.4478,5.4511,5.4484,5.4556,5.4558,5.4522,5.4537,5.4504,5.4503,5.4503,5.4488,5.4489,5.4514,5.4532,5.4553,5.4641,5.4635,5.4684,5.4701,5.4715,5.4725,5.4769,5.4789,5.4569,5.4569,5.4569,0,0,5.4547,5.4535,5.4559,5.4578,5.4575,5.4609,5.4523,5.4564,5.4589,5.451,5.4565,5.4554,5.4552,5.4625,5.4657,5.4621,5.4785,5.4727,5.4738,5.474,5.478,5.4801,5.482,5.4575,5.4574,5.4573,0,0,5.4688,5.4684,5.4742,5.4741,5.4737,5.4712,5.4727,5.4711,5.47,5.4755,5.4696,5.4725,5.477,5.477,5.4776,5.4917,5.487,5.4926,5.5014,5.5058,5.5075,5.509,5.5139,5.5157,5.4936,5.4937,5.4937,0,5.4774,5.4824,5.4778,5.4822,5.4831,5.4761,5.4819,5.482,5.4824,5.4832,5.4792,5.4845,5.4839,5.4911,5.4945,5.4953,5.4967,5.4927,5.5076,5.5091,5.5104,5.515,5.5169,5.4943,5.4943,5.4942,5.4941,0,5.4928,5.4964,5.5011,5.5016,5.5031,5.5083,5.5044,5.5064,5.503,5.501,5.5066,5.5056,5.5073,5.5088,5.5056,5.5156,5.5133,5.5086,5.5013,5.5133,5.5175,5.5192,5.4953,5.4951,5.4949,5.4947,0,0,5.5137,5.5115,5.5133,5.5134,5.5125,5.5151,5.5199,5.5216,5.5234,5.524,5.5277,5.5317,5.5272,5.5279,5.5246,5.5285,5.5395,5.5232,5.5231,5.5261,5.5503,5.5538,5.5559,5.5365,5.5368,5.5371,5.5503,0,5.5273,5.5352,5.5312,5.5397,5.5428,5.5362,5.5403,5.5402,5.5384,5.5408,5.5388,5.5416,5.5356,5.5359,5.5394,5.5375,5.5443,5.5365,5.5399,5.5401,5.54,5.5581,5.5618,5.5743,5.5519,5.5522,5.5524,0,5.5441,5.5453,5.5541,5.5524,5.5536,5.5574,5.5585,5.5609,5.5606,5.559,5.5598,5.5556,5.5601,5.553,5.5591,5.5539,5.5551,5.5543,5.5547,5.5547,5.5468,5.5585,5.5782,5.58,5.555,5.5548,5.5546,0,5.5583,5.562,5.5677,5.568,5.5663,5.5691,5.5685,5.5678,5.569,5.5701,5.5708,5.5724,5.5733,5.5746,5.5709,5.5661,5.5774,5.5701,5.5762,5.5763,5.5787,5.5786,5.5988,5.5798,5.5798,5.5797,5.5797,0,5.5737,5.5793,5.574,5.5775,5.5836,5.5789,5.585,5.5837,5.5831,5.5862,5.5806,5.5836,5.5786,5.5811,5.5783,5.5837,5.5842,5.583,5.5821,5.5834,5.5835,5.584,5.5829,5.5802,5.5801,5.58,5.5799,0,5.5905,5.5872,5.5929,5.5908,5.5904,5.5949,5.5931,5.5962,5.594,5.598,5.5987,5.5952,5.5979,5.5944,5.5968,5.5948,5.6022,5.6001,5.6023,5.6016,5.6078,5.6072,5.6288,5.6314,5.611,5.6112,5.6113,0,5.6005,5.6046,5.6029,5.6046,5.6043,5.607,5.6082,5.6038,5.6052,5.6052,5.6083,5.6105,5.6119,5.6165,5.6142,5.616,5.6138,5.6213,5.614,5.6151,5.6137,5.6135,5.6138,5.6227,5.623,5.6232,5.6233,0,5.6186,5.6167,5.6186,5.62,5.6216,5.6225,5.6229,5.6246,5.6199,5.6218,5.6245,5.6256,5.628,5.6302,5.6313,5.6307,5.6262,5.6257,5.6271,5.6284,5.6294,5.6288,5.6061,5.6251,5.625,5.6248,5.6247,5.6247,5.6321,5.6354,5.6347,5.637,5.6369,5.6374,5.6402,5.6383,5.6404,5.6419,5.6392,5.6425,5.642,5.643,5.6429,5.6454,5.6421,5.6443,5.6448,5.6454,5.6463,5.6291,5.6456,5.6456,5.6455,5.6455,5.6454,0,5.6497,5.6489,5.6511,5.6518,5.6537,5.6493,5.6496,5.6514,5.6543,5.6542,5.6558,5.6587,5.6609,5.6588,5.6604,5.6629,5.6608,5.6634,5.6631,5.663,5.6492,5.6477,5.665,5.665,5.665,5.665,5.665,5.665,5.6591,5.6644,5.6624,5.6676,5.6667,5.6698,5.6703,5.6708,5.6706,5.6742,5.6759,5.6745,5.6735,5.6751,5.6768,5.6762,5.677,5.6803,5.6789,5.666,5.664,5.6622,5.6607,5.6805,5.6806,5.6925,5.6926,5.6927]}]]